Sanikiluaq Airport

Airport
ICAO code: 
CYSK
IATA Code: 
YSK
Summary
ICAO Region: 
NAM
Territory: 
Location: 
Sanikiluaq, Nunavut
Serving: 
Sanikiluaq
Elevation: 
104 ft
Coordinates: 
Aerial View: 
56° 32' 16.119" N, 79° 14' 47.761" W
Metar
Observation
CYSK 241700Z 22019KT 4SM -SN DRSN OVC038 M26/M30 A2941 RMK SC8 SLP965
Station
Sanikiluaq Airport
Date/Time
2022-01-24 17:00:00
Wind direction
220°
Wind speed
19 kts
Lowest cloud amount
overcast
Temperature
-26°C
Dew point
-30°C
Humidity
68%
Weather condition
light drifting

Sanikiluaq Airport is located at Sanikiluaq, Nunavut, Canada, and is operated by the Government of Nunavut. It is one of the few airports in Nunavut that uses magnetic headings for the runway rather than true headings.

Runways

Designator Length Width Surface Rops
9/27 1158 0 UNK No/No
Airport map: 
Aerial View: 

Accidents and Serious Incidents at or in the vicinity of CYSK

SKYbrary Partners:

Safety knowledge contributed by: